Starlink 11388

operational
NORAD ID: 62092 Int'l Des: 2024-220 Owner: SPXS Country: US Constellation: starlink
LEOCIRCULAR

About Starlink 11388

Description loading...

Live Position

Loading 3D Globe...

Upcoming Passes

Altitude History

Altitude vs Time

uPlot chart will show altitude changes over time

Two-Line Element Set

1 62092U 24220E 25304.49731529 .00380460 00000-0 28117-2 0 9995
2 62092 42.9993 101.8857 0002470 249.0918 110.9685 15.71036210 54637
Epoch: Oct 31, 2025 • Age: 14 hours

Current Status

Altitude 356.9 km
Velocity 7.70 km/s
Sub-Earth Point 31.15°N, 69.79°E
Launch Date Nov 25, 2024
Age 0.9 years
Type internet

Technical Details

Classification Payload
Mass 960.00 kg
Dry Mass 910.00 kg
Total Mass 960.00 kg
Length 0.30 m
Diameter 4.10 m
Span 29.00 m
Shape Box + pan
Manufacturer SPXS
Bus Type Starlink V2MD
Phase Status In Orbit
Owner/State SPXS/US

Large Constellations

Loading constellations...